Location: Long Barn
(38.0930°N, 120.1344°W)
Time: 00:44:52
(UTC+00:00)

BlueWalker 3 - Pass Details

Date: 25 January 2026
Orbit: 450 x 461 km, 53.2° (Epoch: 11 February)

Event Time Altitude Azimuth Distance (km) Brightness Sun altitude
Rises 02:34:07 0° 271° (W) 2,451 7.1 -15.7°
Reaches altitude 10° 02:36:51 10° 293° (WNW) 1,580 5.3 -16.2°
Maximum altitude 02:39:10 16° 334° (NNW) 1,244 4.1 -16.6°
Enters shadow 02:41:02 12° 9° (N) 1,471 4.1 -17.0°
